Location: Cerezo de Arriba
(41.2389°N, 3.5585°W)
Time: 03:15:43
(UTC+00:00)

Cosmos 1805 - Pass Details

Date: 19 May 2025
Orbit: 448 x 452 km, 82.5° (Epoch: 23 June)

Event Time Altitude Azimuth Distance (km) Brightness Sun altitude
Rises 22:22:18 0° 353° (N) 2,462 7.8 -23.8°
Reaches altitude 10° 22:24:23 10° 355° (N) 1,585 6.6 -24.0°
Enters shadow 22:26:47 42° 2° (N) 652 4.0 -24.2°
